Location: Brantley
(31.5822°N, 86.2569°W)
Time: 17:48:20
(UTC+00:00)

Courier 1B - All Passes

Search period start: 16 February 2026 00:00
Search period end: 26 February 2026 00:00
Orbit: 962 x 1208 km, 28.3° (Epoch: 16 February)

Date Brightness Start Highest point End Pass type
(mag) Time Alt. Az. Time Alt. Az. Time Alt. Az.
16 Feb - 00:59:09 10° SW 01:05:44 35° SSE 01:12:35 10° E visible
16 Feb - 02:52:10 10° WSW 02:59:39 63° S 03:07:25 10° E visible
16 Feb - 04:46:13 10° W 04:53:57 69° S 05:01:46 10° ESE night (unlit)
16 Feb - 06:40:42 10° W 06:48:07 46° SSW 06:55:24 10° SE night (unlit)
16 Feb - 08:36:34 10° WSW 08:41:47 19° SSW 08:46:53 10° SSE night (unlit)
17 Feb - 00:05:56 10° SSW 00:11:52 28° SSE 00:18:06 10° E visible
17 Feb - 01:58:22 10° WSW 02:05:38 57° SSE 02:13:14 10° E visible
17 Feb - 03:52:12 10° W 03:59:51 71° S 04:07:42 10° E visible
17 Feb - 05:46:32 10° W 05:54:06 54° SSW 06:01:39 10° ESE night (unlit)
17 Feb - 07:41:43 10° W 07:47:55 26° SSW 07:54:00 10° SSE night (unlit)
17 Feb - 23:13:01 10° SSW 23:18:06 21° SSE 23:23:22 10° ESE daylight
18 Feb - 01:04:42 10° SW 01:11:40 49° SSE 01:19:00 10° E visible
18 Feb - 02:58:16 10° W 03:05:46 70° S 03:13:34 10° E visible
18 Feb - 04:52:26 10° W 05:00:03 60° SSW 05:07:46 10° ESE night (unlit)
18 Feb - 06:47:13 10° W 06:54:01 33° SSW 07:00:45 10° SE night (unlit)
18 Feb - 08:46:09 10° SW 08:47:32 11° SW 08:48:56 10° SSW night (unlit)
18 Feb - 22:20:39 10° S 22:24:21 15° SSE 22:28:10 10° ESE daylight
19 Feb - 00:11:12 10° SW 00:17:45 40° SSE 00:24:42 10° E visible
19 Feb - 02:04:24 10° WSW 02:11:43 67° S 02:19:25 10° E visible
19 Feb - 03:58:25 10° W 04:05:59 66° S 04:13:46 10° ESE visible
19 Feb - 05:52:54 10° W 06:00:04 40° SSW 06:07:14 10° SE night (unlit)
19 Feb - 07:49:24 10° WSW 07:53:42 16° SSW 07:57:57 10° S night (unlit)
19 Feb - 23:17:52 10° SW 23:23:56 32° SSE 23:30:20 10° E daylight
20 Feb - 01:10:37 10° WSW 01:17:42 61° S 01:25:14 10° E visible
20 Feb - 03:04:28 10° W 03:11:54 69° S 03:19:41 10° ESE visible
20 Feb - 04:58:45 10° W 05:06:04 48° SSW 05:13:32 10° SE night (unlit)
20 Feb - 06:54:16 10° WSW 06:59:50 21° SSW 07:05:23 10° SSE night (unlit)
20 Feb - 22:24:47 10° SSW 22:30:10 25° SSE 22:35:48 10° E daylight
21 Feb - 00:16:56 10° WSW 00:23:46 54° SSE 00:31:02 10° E visible
21 Feb - 02:10:34 10° W 02:17:51 70° S 02:25:33 10° E visible
21 Feb - 04:04:41 10° W 04:12:03 55° SSW 04:19:40 10° ESE visible
21 Feb - 05:59:37 10° W 06:05:56 27° SSW 06:12:18 10° SSE night (unlit)
21 Feb - 21:32:03 10° SSW 21:36:28 18° SSE 21:41:01 10° ESE daylight
21 Feb - 23:23:22 10° SW 23:29:53 46° SSE 23:36:48 10° E daylight
22 Feb - 01:16:44 10° WSW 01:23:50 69° S 01:31:24 10° E visible
22 Feb - 03:10:43 10° W 03:18:01 61° S 03:25:41 10° ESE visible
22 Feb - 05:05:16 10° W 05:12:00 34° SSW 05:18:53 10° SE night (unlit)
22 Feb - 07:03:00 10° SW 07:05:37 12° SSW 07:08:15 10° SSW night (unlit)
22 Feb - 20:40:01 10° S 20:42:47 13° SSE 20:45:35 10° ESE daylight
22 Feb - 22:29:57 10° SW 22:36:04 37° SSE 22:42:32 10° E daylight
23 Feb - 00:22:58 10° WSW 00:29:52 65° S 00:37:14 10° E visible
23 Feb - 02:16:48 10° W 02:24:00 66° S 02:31:37 10° ESE visible
23 Feb - 04:11:05 10° W 04:18:03 41° SSW 04:25:16 10° SE visible
23 Feb - 06:07:09 10° WSW 06:11:45 17° SSW 06:16:24 10° S night (unlit)
23 Feb - 21:36:43 10° SSW 21:42:19 29° SSE 21:48:11 10° E daylight
23 Feb - 23:29:15 10° WSW 23:35:56 58° SSE 23:43:04 10° E daylight
24 Feb - 01:22:57 10° W 01:30:00 69° S 01:37:31 10° ESE visible
24 Feb - 03:17:03 10° W 03:24:05 48° SSW 03:31:28 10° SE visible
24 Feb - 05:12:16 10° WSW 05:17:52 22° SSW 05:23:36 10° SSE night (unlit)
24 Feb - 20:43:44 10° SSW 20:48:37 22° SSE 20:53:40 10° ESE daylight
24 Feb - 22:35:39 10° WSW 22:42:05 51° SSE 22:48:54 10° E daylight
25 Feb - 00:29:09 10° W 00:36:01 69° S 00:43:23 10° E visible
25 Feb - 02:23:06 10° W 02:30:07 55° SSW 02:37:32 10° ESE visible
25 Feb - 04:17:48 10° W 04:23:58 28° SSW 04:30:21 10° SSE visible
25 Feb - 19:51:08 10° S 19:54:57 16° SSE 19:58:50 10° ESE daylight
25 Feb - 21:42:09 10° SW 21:48:17 42° SSE 21:54:44 10° E daylight
25 Feb - 23:35:23 10° WSW 23:42:06 67° S 23:49:15 10° E daylight
